This is the latest recevied weather packets stored in our database for station/object KC5EZZ-2. If no packets are shown the sender has not sent any weather packets the latest 10 day(s).
| Time | Temp. | Humidity | Pressure | Rain* | Wind** | Luminosity | Snow |
|---|---|---|---|---|---|---|---|
| 1778084815 | 16.11° C | - | - | 0 mm | 3.58 m/s, 343° | - | - |
| 1778084515 | 16.11° C | - | - | 0 mm | 3.58 m/s, 338° | - | - |
| 1778084213 | 15.56° C | - | - | 0 mm | 4.02 m/s, 11° | - | - |
| 1778083913 | 15.56° C | - | - | 0 mm | 3.13 m/s, 346° | - | - |
| 1778083614 | 15° C | - | - | 0 mm | 3.13 m/s, 4° | - | - |
| 1778083311 | 15° C | - | - | 0 mm | 3.58 m/s, 3° | - | - |
| 1778083012 | 14.44° C | - | - | 0 mm | 3.58 m/s, 14° | - | - |
| 1778082712 | 14.44° C | - | - | 0 mm | 2.68 m/s, 4° | - | - |
| 1778082486 | 13.89° C | - | - | 0 mm | 2.68 m/s, 353° | - | - |
| 1778082410 | 13.89° C | - | - | 0 mm | 2.68 m/s, 353° | - | - |
| 1778082110 | 13.89° C | - | - | 0 mm | 2.68 m/s, 350° | - | - |
| 1778081811 | 13.89° C | - | - | 0 mm | 3.13 m/s, 39° | - | - |
| 1778081508 | 13.89° C | - | - | 0 mm | 2.68 m/s, 39° | - | - |
| 1778081209 | 13.89° C | - | - | 0 mm | 3.13 m/s, 24° | - | - |
| 1778080909 | 13.33° C | - | - | 0 mm | 4.02 m/s, 20° | - | - |
| 1778080607 | 13.89° C | - | - | 0 mm | 4.02 m/s, 333° | - | - |
| 1778080307 | 13.33° C | - | - | 0 mm | 4.47 m/s, 359° | - | - |
| 1778080008 | 13.89° C | - | - | 0 mm | 4.47 m/s, 328° | - | - |
| 1778079705 | 13.89° C | - | - | 0 mm | 4.02 m/s, 329° | - | - |
| 1778079406 | 13.33° C | - | - | 0 mm | 4.47 m/s, 323° | - | - |
| 1778079106 | 13.33° C | - | - | 0 mm | 4.02 m/s, 326° | - | - |
| 1778078504 | 13.33° C | - | - | 0 mm | 3.58 m/s, 330° | - | - |
| 1778078205 | 12.78° C | - | - | 0 mm | 4.02 m/s, 328° | - | - |
| 1778078044 | 12.78° C | - | - | 0 mm | 4.92 m/s, 335° | - | - |
| 1778077903 | 12.78° C | - | - | 0 mm | 4.92 m/s, 335° | - | - |
* Rain latest hour (hover to see other rain measurements)
** Current wind speed in m/s (hover to see current wind gust speed)